Tracking 19562 objects as of 25-Mar-2019
HD Live streaming from Space Station
objects crossing your sky now

BS-3N

Track BS-3N now!
BS-3N is classified as:


NORAD ID: 23176
Int'l Code: 1994-040B
Perigee: 36,069.1 km
Apogee: 36,150.4 km
Inclination: 10.4 °
Period: 1,452.3 minutes
Semi major axis: 42480 km
RCS: 15.8489 m2 (large)
Launch date: July 8, 1994
Source: Japan (JPN)
Launch site: FRENCH GUIANA (FRGUI)

BS-3N was a Japanese geostationary communications satellite. It is designed to serve the Pacific region countries.
aabbcc
Your satellite tracking list
Your tracking list is empty




NASA's NSSDC Master Catalog

Two Line Element Set (TLE):
1 23176U 94040B   19084.20223192 -.00000316  00000-0  00000+0 0  9999
2 23176  10.4323  37.6587 0009570 317.9732  50.6106  0.99154915 90003
Source of the keplerian elements: AFSPC